CW3827 Weather Reports


Display with metric or nautical units.
time (UTC)temp
F
wind
direction
speed
MPH
gust
MPH
rain 1hr
in
rain 24hr
in
rain mn
in
humidity
%
barometer
mb
20260904061531 74 135 3.0 6.0 0.00 0.00 0.00 48 1022.5
20260904060028 73 142 3.0 5.0 0.00 0.00 0.00 49 1022.5
20260904054533 72 135 3.0 5.0 0.00 0.00 0.00 54 1022.5
20260904053026 72 128 3.0 4.0 0.00 0.00 0.00 53 1022.4
20260904051518 71 110 6.0 7.0 0.00 0.00 0.00 55 1022.4
20260904050014 72 101 5.0 7.0 0.00 0.00 0.00 55 1022.4
20260904044533 71 108 6.0 7.0 0.00 0.00 0.00 55 1022.5
20260904043031 71 105 5.0 7.0 0.00 0.00 0.00 57 1022.6
20260904041527 71 102 5.0 7.0 0.00 0.00 0.00 56 1022.7
20260904040034 72 105 6.0 8.0 0.00 0.00 0.00 56 1022.6
20260904034529 73 92 3.0 5.0 0.00 0.00 0.00 50 1022.4
20260904033017 74 110 3.0 6.0 0.00 0.00 0.00 48 1022.4
20260904031510 74 158 5.0 7.0 0.00 0.00 0.00 47 1022.3
20260904030010 74 139 4.0 9.0 0.00 0.00 0.00 48 1022.2
20260904024504 75 135 7.0 11.0 0.00 0.00 0.00 47 1022.0
20260904023006 74 116 6.0 8.0 0.00 0.00 0.00 49 1021.8
20260904021533 73 72 5.0 10.0 0.00 0.00 0.00 52 1021.7
20260904020020 71 43 6.0 8.0 0.00 0.00 0.00 58 1021.5
20260904014525 71 105 7.0 8.0 0.00 0.00 0.00 54 1021.3
20260904013011 73 57 6.0 9.0 0.00 0.00 0.00 55 1021.1
20260904011518 73 47 7.0 9.0 0.00 0.00 0.00 55 1020.9
20260904010005 75 105 9.0 11.0 0.00 0.00 0.00 50 1020.9
20260904004526 76 94 9.0 11.0 0.00 0.00 0.00 49 1020.9
20260904003020 76 101 9.0 13.0 0.00 0.00 0.00 49 1021.0
20260904001518 77 20 9.0 14.0 0.00 0.00 0.00 49 1021.1
20260904000015 77 46 10.0 14.0 0.00 0.00 0.00 52 1021.2
20260903234511 77 53 13.0 18.0 0.00 0.00 0.00 51 1021.3
20260903233008 78 70 19.0 24.0 0.00 0.00 0.00 44 1021.3
20260903231529 79 67 14.0 19.0 0.00 0.00 0.00 41 1021.6
20260903230036 80 36 15.0 23.0 0.00 0.00 0.00 42 1021.5
20260903224532 79 44 16.0 25.0 0.00 0.00 0.00 42 1021.7
20260903223019 79 78 22.0 29.0 0.00 0.00 0.00 42 1021.7
20260903221515 80 46 21.0 28.0 0.00 0.00 0.00 42 1021.9
20260903220018 80 11 22.0 30.0 0.00 0.00 0.00 42 1022.0
20260903214532 79 37 21.0 28.0 0.00 0.00 0.00 46 1022.1
20260903213033 78 46 20.0 26.0 0.00 0.00 0.00 46 1022.3
20260903211528 79 32 19.0 27.0 0.00 0.00 0.00 44 1022.4
20260903210003 84 60 20.0 26.0 0.00 0.00 0.00 34 1022.5
20260903204504 88 287 6.0 14.0 0.00 0.00 0.00 28 1022.0
20260903203002 88 309 10.0 20.0 0.00 0.00 0.00 28 1022.1
20260903201506 87 15 6.0 16.0 0.00 0.00 0.00 29 1022.0
20260903200002 86 351 1.0 16.0 0.00 0.00 0.00 29 1022.2
20260903194504 86 15 11.0 18.0 0.00 0.00 0.00 29 1022.4
20260903193003 86 302 9.0 19.0 0.00 0.00 0.00 28 1022.9
20260903191501 85 336 6.0 14.0 0.00 0.00 0.00 30 1023.1
20260903190004 85 353 7.0 15.0 0.00 0.00 0.00 29 1023.4
20260903184505 84 358 10.0 17.0 0.00 0.00 0.00 29 1023.6
20260903183006 84 357 3.0 21.0 0.00 0.00 0.00 30 1024.0
20260903181503 83 34 11.0 14.0 0.00 0.00 0.00 30 1024.4
20260903180002 82 22 8.0 12.0 0.00 0.00 0.00 32 1024.5
20260903174506 82 18 10.0 14.0 0.00 0.00 0.00 32 1024.6
20260903173021 82 358 7.0 13.0 0.00 0.00 0.00 31 1024.7
20260903171507 81 347 7.0 11.0 0.00 0.00 0.00 34 1024.8
20260903170010 81 329 6.0 10.0 0.00 0.00 0.00 35 1024.8
20260903164507 80 315 2.0 11.0 0.00 0.00 0.00 36 1024.8
20260903163010 79 322 6.0 13.0 0.00 0.00 0.00 38 1024.8
20260903161511 78 45 6.0 13.0 0.00 0.00 0.00 38 1024.7
20260903160012 78 45 5.0 13.0 0.00 0.00 0.00 39 1024.7
20260903154512 78 163 4.0 8.0 0.00 0.00 0.00 40 1024.5
20260903153012 76 200 6.0 12.0 0.00 0.00 0.00 42 1024.6
20260903151512 75 181 4.0 9.0 0.00 0.00 0.00 44 1024.7
20260903150023 74 208 5.0 9.0 0.00 0.00 0.00 45 1024.7
20260903144510 74 163 2.0 5.0 0.00 0.00 0.00 45 1024.7
20260903143028 74 228 3.0 6.0 0.00 0.00 0.00 45 1024.8
20260903141519 72 224 3.0 6.0 0.00 0.00 0.00 49 1024.7
20260903140017 73 156 0.0 0.0 0.00 0.00 0.00 47 1024.7
20260903134534 71 108 0.0 0.0 0.00 0.00 0.00 56 1024.4
20260903133012 70 107 0.0 2.0 0.00 0.00 0.00 56 1024.2
20260903131507 66 108 5.0 6.0 0.00 0.00 0.00 61 1024.0
20260903130006 64 103 5.0 5.0 0.00 0.00 0.00 61 1023.8
20260903124504 62 70 6.0 6.0 0.00 0.00 0.00 64 1023.8
20260903123010 62 68 5.0 6.0 0.00 0.00 0.00 62 1023.7
20260903121527 63 110 6.0 6.0 0.00 0.00 0.00 61 1023.5
20260903120018 63 143 4.0 6.0 0.00 0.00 0.00 60 1023.3
20260903114520 63 119 6.0 7.0 0.00 0.00 0.00 60 1023.3
20260903113010 64 126 6.0 8.0 0.00 0.00 0.00 57 1023.2
20260903111504 64 112 5.0 9.0 0.00 0.00 0.00 57 1023.1
20260903110027 65 110 5.0 7.0 0.00 0.00 0.00 56 1023.0
20260903104526 65 240 5.0 14.0 0.00 0.00 0.00 57 1023.0
20260903103024 70 169 0.0 7.0 0.00 0.00 0.00 47 1022.8
20260903101517 69 50 4.0 5.0 0.00 0.00 0.00 50 1022.6
20260903100014 70 50 3.0 4.0 0.00 0.00 0.00 49 1022.5
20260903094510 69 55 3.0 6.0 0.00 0.00 0.00 50 1022.6
20260903093047 67 58 6.0 8.0 0.00 0.00 0.00 53 1022.6
20260903091527 71 108 0.0 7.0 0.00 0.00 0.00 46 1022.5
20260903090026 69 66 6.0 7.0 0.00 0.00 0.00 50 1022.5
20260903084520 68 58 5.0 6.0 0.00 0.00 0.00 53 1022.7
20260903083017 69 44 5.0 7.0 0.00 0.00 0.00 51 1022.8
20260903081531 69 65 5.0 8.0 0.00 0.00 0.00 51 1022.9
20260903080035 68 47 7.0 10.0 0.00 0.00 0.00 53 1023.0
20260903074530 68 68 10.0 12.0 0.00 0.00 0.00 53 1023.1
20260903073033 68 63 10.0 12.0 0.00 0.00 0.00 53 1023.1
20260903071504 68 59 8.0 11.0 0.00 0.00 0.00 54 1023.1
20260903070024 69 66 10.0 13.0 0.00 0.00 0.00 53 1023.1
20260903064518 69 60 8.0 12.0 0.00 0.00 0.00 52 1023.1
20260903063015 69 49 11.0 14.0 0.00 0.00 0.00 52 1023.1